CT2IRK-11 Weather Reports


time (UTC)temp
C
wind
direction
speed
KPH
gust
KPH
rain 1hr
cm
rain 24hr
cm
rain mn
cm
humidity
%
barometer
mb
20180419231652 15 29 8.0 8.0 0.00 0.00 0.00 82 1008.4
20180419231152 15 27 6.4 8.0 0.00 0.00 0.00 81 1008.4
20180419230652 16 22 6.4 8.0 0.00 0.00 0.00 81 1008.4
20180419230152 16 31 6.4 0.0 0.00 0.00 0.00 81 1008.4
20180419225652 16 34 8.0 22.5 0.00 0.00 0.00 80 1008.5
20180419225152 16 22 6.4 22.5 0.00 0.00 0.00 80 1008.5
20180419224652 16 53 8.0 22.5 0.00 0.00 0.00 80 1008.5
20180419224152 16 45 8.0 22.5 0.00 0.00 0.00 80 1008.7
20180419223651 16 30 9.7 22.5 0.00 0.00 0.00 79 1008.7
20180419223151 16 28 8.0 22.5 0.00 0.00 0.00 79 1008.8
20180419222652 16 45 8.0 22.5 0.00 0.00 0.00 78 1008.8
20180419222151 16 45 8.0 22.5 0.00 0.00 0.00 78 1008.8
20180419221652 16 45 8.0 22.5 0.00 0.00 0.00 78 1008.8
20180419221151 17 35 9.7 22.5 0.00 0.00 0.00 78 1008.8
20180419220652 17 24 8.0 22.5 0.00 0.00 0.00 78 1008.9
20180419220152 17 59 8.0 22.5 0.00 0.00 0.00 77 1008.9
20180419215652 17 59 9.7 22.5 0.00 0.00 0.00 77 1008.9
20180419215152 17 54 9.7 22.5 0.00 0.00 0.00 77 1008.9
20180419214652 17 45 8.0 22.5 0.00 0.00 0.00 77 1008.9
20180419214152 17 48 8.0 22.5 0.00 0.00 0.00 77 1009.0
20180419213652 17 32 8.0 22.5 0.00 0.00 0.00 77 1009.0
20180419213152 17 22 8.0 22.5 0.00 0.00 0.00 76 1009.1
20180419212651 17 34 6.4 22.5 0.00 0.00 0.00 76 1009.1
20180419212150 17 22 6.4 22.5 0.00 0.00 0.00 75 1009.1
20180419211652 18 27 6.4 22.5 0.00 0.00 0.00 74 1009.0
20180419211150 18 38 8.0 22.5 0.00 0.00 0.00 73 1009.0
20180419210651 18 32 9.7 22.5 0.00 0.00 0.00 73 1009.1
20180419210151 18 22 11.3 22.5 0.00 0.00 0.00 73 1009.1
20180419205651 18 22 9.7 22.5 0.00 0.00 0.00 73 1009.1
20180419205152 18 37 11.3 22.5 0.00 0.00 0.00 73 1009.1
20180419204652 18 35 9.7 22.5 0.00 0.00 0.00 74 1009.1
20180419204152 18 35 9.7 22.5 0.00 0.00 0.00 74 1009.0
20180419203652 18 22 9.7 22.5 0.00 0.00 0.00 74 1009.0
20180419203151 18 26 9.7 22.5 0.00 0.00 0.00 74 1008.8
20180419202650 18 22 9.7 22.5 0.00 0.00 0.00 74 1008.8
20180419202152 18 31 9.7 22.5 0.00 0.00 0.00 74 1008.9
20180419201651 18 22 8.0 22.5 0.00 0.00 0.00 73 1008.9
20180419201150 19 22 11.3 22.5 0.00 0.00 0.00 71 1008.9
20180419200652 19 22 9.7 22.5 0.00 0.00 0.00 71 1008.9
20180419200151 20 33 11.3 22.5 0.00 0.00 0.00 70 1008.9
20180419195650 20 45 14.5 22.5 0.00 0.00 0.00 69 1008.9
20180419195152 20 57 11.3 22.5 0.00 0.00 0.00 69 1008.9
20180419194652 20 27 11.3 22.5 0.00 0.00 0.00 69 1008.9
20180419194150 20 59 12.9 22.5 0.00 0.00 0.00 68 1008.8
20180419193651 20 59 11.3 22.5 0.00 0.00 0.00 68 1008.8
20180419193151 20 69 11.3 22.5 0.00 0.00 0.00 67 1008.7
20180419192651 21 40 11.3 22.5 0.00 0.00 0.00 67 1008.7
20180419192152 21 37 11.3 22.5 0.00 0.00 0.00 67 1008.7
20180419191652 21 35 12.9 22.5 0.00 0.00 0.00 66 1008.6
20180419191151 21 58 11.3 22.5 0.00 0.00 0.00 66 1008.6
20180419190652 21 34 11.3 22.5 0.00 0.00 0.00 66 1008.5
20180419190150 21 70 8.0 22.5 0.00 0.00 0.00 67 1008.5
20180419185652 22 45 8.0 22.5 0.00 0.00 0.00 66 1008.6
20180419185152 22 22 8.0 22.5 0.00 0.00 0.00 66 1008.6
20180419184650 22 56 11.3 22.5 0.00 0.00 0.00 64 1008.6
20180419184152 22 45 6.4 22.5 0.00 0.00 0.00 64 1008.7
20180419183651 22 45 9.7 22.5 0.00 0.00 0.00 63 1008.7
20180419183150 23 16 8.0 22.5 0.00 0.00 0.00 62 1008.5
20180419182652 24 22 8.0 22.5 0.00 0.00 0.00 58 1008.5
20180419182150 25 327 8.0 22.5 0.00 0.00 0.00 52 1008.5
20180419181651 26 71 4.8 22.5 0.00 0.00 0.00 44 1008.2
20180419181150 26 100 6.4 22.5 0.00 0.00 0.00 43 1008.2
20180419180650 27 103 8.0 22.5 0.00 0.00 0.00 42 1008.4
20180419180151 27 90 6.4 22.5 0.00 0.00 0.00 42 1008.4
20180419175651 27 74 4.8 22.5 0.00 0.00 0.00 42 1008.3
20180419175150 27 123 6.4 22.5 0.00 0.00 0.00 42 1008.3
20180419174650 28 152 6.4 22.5 0.00 0.00 0.00 42 1008.4
20180419174151 27 103 4.8 22.5 0.00 0.00 0.00 42 1008.5
20180419173650 27 82 6.4 22.5 0.00 0.00 0.00 43 1008.5
20180419173151 27 47 6.4 22.5 0.00 0.00 0.00 43 1008.4
20180419172650 27 71 8.0 22.5 0.00 0.00 0.00 43 1008.4
20180419172151 27 94 9.7 22.5 0.00 0.00 0.00 42 1008.4
20180419171650 27 66 4.8 22.5 0.00 0.00 0.00 43 1008.5
20180419171151 26 171 4.8 22.5 0.00 0.00 0.00 43 1008.5
20180419170651 26 156 4.8 22.5 0.00 0.00 0.00 43 1008.5
20180419170150 27 172 9.7 22.5 0.00 0.00 0.00 42 1008.5
20180419165650 27 104 8.0 22.5 0.00 0.00 0.00 42 1008.5
20180419165150 27 105 6.4 22.5 0.00 0.00 0.00 42 1008.5
20180419164651 27 129 8.0 22.5 0.00 0.00 0.00 41 1008.5
20180419164150 27 152 9.7 22.5 0.00 0.00 0.00 41 1008.7
20180419163650 27 106 6.4 22.5 0.00 0.00 0.00 41 1008.7
20180419163150 27 99 12.9 22.5 0.00 0.00 0.00 41 1008.6
20180419162650 27 52 11.3 22.5 0.00 0.00 0.00 42 1008.6
20180419162151 27 160 9.7 22.5 0.00 0.00 0.00 42 1008.6
20180419161650 27 135 6.4 22.5 0.00 0.00 0.00 41 1008.8
20180419161150 27 197 6.4 22.5 0.00 0.00 0.00 41 1008.8
20180419160651 27 124 8.0 22.5 0.00 0.00 0.00 41 1008.8
20180419160149 27 123 6.4 22.5 0.00 0.00 0.00 41 1008.8
20180419155651 27 62 9.7 22.5 0.00 0.00 0.00 40 1009.0
20180419155150 27 132 9.7 22.5 0.00 0.00 0.00 40 1009.0
20180419154649 27 168 9.7 22.5 0.00 0.00 0.00 40 1009.0
20180419154151 27 94 6.4 22.5 0.00 0.00 0.00 40 1009.1
20180419153651 27 117 9.7 22.5 0.00 0.00 0.00 39 1009.1
20180419153149 27 75 14.5 22.5 0.00 0.00 0.00 40 1009.1
20180419152650 27 187 8.0 20.9 0.00 0.00 0.00 40 1009.1
20180419152149 27 126 9.7 20.9 0.00 0.00 0.00 39 1009.0
20180419151649 27 107 8.0 19.3 0.00 0.00 0.00 39 1009.0
20180419151149 27 147 12.9 19.3 0.00 0.00 0.00 40 1009.0
20180419150650 27 122 6.4 19.3 0.00 0.00 0.00 40 1009.2
20180419150150 28 122 12.9 19.3 0.00 0.00 0.00 39 1009.2
20180419145650 27 7 8.0 19.3 0.00 0.00 0.00 38 1009.4
20180419145150 27 204 11.3 19.3 0.00 0.00 0.00 38 1009.4
20180419144649 27 116 9.7 19.3 0.00 0.00 0.00 39 1009.4
20180419144150 28 125 11.3 19.3 0.00 0.00 0.00 39 1009.6
20180419143649 28 78 14.5 19.3 0.00 0.00 0.00 37 1009.6
20180419143150 28 90 12.9 19.3 0.00 0.00 0.00 38 1009.7
20180419142650 28 175 11.3 19.3 0.00 0.00 0.00 37 1009.7
20180419142149 28 152 11.3 19.3 0.00 0.00 0.00 37 1009.6
20180419141649 28 82 12.9 19.3 0.00 0.00 0.00 36 1009.6
20180419141150 28 112 6.4 19.3 0.00 0.00 0.00 40 1009.6
20180419140650 28 139 12.9 19.3 0.00 0.00 0.00 39 1009.7
20180419140149 27 189 8.0 19.3 0.00 0.00 0.00 38 1009.7
20180419135649 28 100 11.3 19.3 0.00 0.00 0.00 39 1009.9
20180419135149 27 104 6.4 19.3 0.00 0.00 0.00 40 1009.9
20180419134650 28 158 14.5 19.3 0.00 0.00 0.00 39 1009.9
20180419134149 28 99 9.7 17.7 0.00 0.00 0.00 39 1010.1
20180419133650 28 64 11.3 17.7 0.00 0.00 0.00 40 1010.1
20180419133149 28 94 8.0 17.7 0.00 0.00 0.00 40 1010.2
20180419132649 28 85 8.0 17.7 0.00 0.00 0.00 42 1010.2
20180419132150 28 0 8.0 17.7 0.00 0.00 0.00 46 1010.2
20180419131650 27 81 11.3 17.7 0.00 0.00 0.00 44 1010.2
20180419131150 27 77 8.0 17.7 0.00 0.00 0.00 43 1010.2
20180419130649 27 68 8.0 17.7 0.00 0.00 0.00 43 1010.4
20180419130150 28 56 12.9 17.7 0.00 0.00 0.00 42 1010.4
20180419125648 27 149 4.8 17.7 0.00 0.00 0.00 43 1010.4
20180419125150 27 202 4.8 17.7 0.00 0.00 0.00 43 1010.4
20180419124650 27 169 11.3 17.7 0.00 0.00 0.00 45 1010.4
20180419124150 27 180 8.0 17.7 0.00 0.00 0.00 45 1010.8
20180419123649 27 72 12.9 17.7 0.00 0.00 0.00 47 1010.8
20180419123149 26 55 6.4 14.5 0.00 0.00 0.00 48 1010.9
20180419122649 26 26 4.8 14.5 0.00 0.00 0.00 54 1010.9
20180419122148 26 37 8.0 14.5 0.00 0.00 0.00 52 1010.9
20180419121650 26 56 4.8 14.5 0.00 0.00 0.00 51 1011.0
20180419121149 26 44 8.0 14.5 0.00 0.00 0.00 50 1011.0
20180419120650 26 200 8.0 14.5 0.00 0.00 0.00 50 1011.1
20180419120149 26 34 4.8 14.5 0.00 0.00 0.00 52 1011.1
20180419115649 25 169 8.0 14.5 0.00 0.00 0.00 51 1011.2
20180419115151 25 48 6.4 14.5 0.00 0.00 0.00 52 1011.3
20180419114649 26 180 8.0 14.5 0.00 0.00 0.00 54 1011.3
20180419114148 25 297 6.4 14.5 0.00 0.00 0.00 55 1011.4
20180419113650 25 4 8.0 14.5 0.00 0.00 0.00 55 1011.4
20180419113149 24 337 6.4 14.5 0.00 0.00 0.00 56 1011.6
20180419112648 24 15 11.3 14.5 0.00 0.00 0.00 55 1011.6
20180419112150 24 346 6.4 14.5 0.00 0.00 0.00 55 1011.7
20180419111649 24 42 9.7 14.5 0.00 0.00 0.00 55 1011.7
20180419111148 24 358 11.3 14.5 0.00 0.00 0.00 57 1011.7
20180419110650 23 22 9.7 14.5 0.00 0.00 0.00 57 1011.9
20180419110149 23 74 9.7 14.5 0.00 0.00 0.00 56 1011.9
20180419105649 23 27 6.4 14.5 0.00 0.00 0.00 57 1012.0
20180419105149 23 9 9.7 14.5 0.00 0.00 0.00 57 1012.0
20180419104648 23 2 8.0 14.5 0.00 0.00 0.00 57 1012.0
20180419104149 23 76 9.7 14.5 0.00 0.00 0.00 58 1012.1
20180419103650 23 76 6.4 14.5 0.00 0.00 0.00 58 1012.1
20180419103149 22 76 9.7 14.5 0.00 0.00 0.00 57 1012.3
20180419102649 22 33 11.3 14.5 0.00 0.00 0.00 58 1012.3
20180419102149 22 60 9.7 14.5 0.00 0.00 0.00 59 1012.2
20180419101649 22 63 8.0 14.5 0.00 0.00 0.00 58 1012.2
20180419101149 22 86 9.7 14.5 0.00 0.00 0.00 58 1012.2
20180419100649 21 45 8.0 14.5 0.00 0.00 0.00 59 1012.4
20180419100148 21 62 6.4 14.5 0.00 0.00 0.00 62 1012.4
20180419095649 21 357 8.0 14.5 0.00 0.00 0.00 62 1012.5
20180419095149 20 31 6.4 14.5 0.00 0.00 0.00 64 1012.5
20180419094648 20 2 8.0 14.5 0.00 0.00 0.00 64 1012.5
20180419094149 20 345 8.0 14.5 0.00 0.00 0.00 64 1012.6
20180419093649 20 356 11.3 14.5 0.00 0.00 0.00 63 1012.6
20180419093149 19 31 8.0 14.5 0.00 0.00 0.00 63 1012.6
20180419092649 19 22 9.7 14.5 0.00 0.00 0.00 63 1012.6
20180419092149 19 8 9.7 14.5 0.00 0.00 0.00 64 1012.7
20180419091648 18 22 8.0 14.5 0.00 0.00 0.00 64 1012.7
20180419091148 18 32 8.0 14.5 0.00 0.00 0.00 65 1012.7
20180419090650 18 35 9.7 14.5 0.00 0.00 0.00 64 1012.7
20180419090148 18 356 11.3 14.5 0.00 0.00 0.00 64 1012.7
20180419085647 17 45 9.7 14.5 0.00 0.00 0.00 64 1012.9
20180419085149 17 33 11.3 14.5 0.00 0.00 0.00 64 1012.9
20180419084648 17 44 11.3 14.5 0.00 0.00 0.00 65 1012.9
20180419084147 17 338 9.7 14.5 0.00 0.00 0.00 65 1013.0
20180419083649 17 35 11.3 14.5 0.00 0.00 0.00 65 1013.0
20180419083149 17 31 9.7 14.5 0.00 0.00 0.00 65 1013.1
20180419082647 16 33 11.3 14.5 0.00 0.00 0.00 65 1013.1
20180419082148 16 32 9.7 14.5 0.00 0.00 0.00 66 1013.1
20180419081648 16 43 9.7 14.5 0.00 0.00 0.00 66 1013.1
20180419081147 16 56 9.7 14.5 0.00 0.00 0.00 68 1013.1
20180419080648 16 44 9.7 14.5 0.00 0.00 0.00 67 1013.2
20180419080149 16 52 8.0 14.5 0.00 0.00 0.00 67 1013.2
20180419075648 16 36 6.4 14.5 0.00 0.00 0.00 66 1013.1
20180419075148 17 42 8.0 14.5 0.00 0.00 0.00 65 1013.1
20180419074648 16 299 3.2 14.5 0.00 0.00 0.00 67 1013.1
20180419074148 17 326 0.0 14.5 0.00 0.00 0.00 67 1013.1
20180419073648 17 356 0.0 14.5 0.00 0.00 0.00 67 1013.1
20180419073148 16 323 0.0 14.5 0.00 0.00 0.00 70 1013.0
20180419072648 16 281 0.0 14.5 0.00 0.00 0.00 69 1013.0
20180419072148 16 282 0.0 14.5 0.00 0.00 0.00 69 1013.0
20180419071648 16 309 0.0 14.5 0.00 0.00 0.00 70 1013.0
20180419071148 15 342 0.0 14.5 0.00 0.00 0.00 71 1013.0
20180419070648 14 25 0.0 14.5 0.00 0.00 0.00 75 1013.1
20180419070147 13 22 0.0 14.5 0.00 0.00 0.00 75 1013.1
20180419065648 13 34 0.0 14.5 0.00 0.00 0.00 76 1013.1
20180419065149 13 22 0.0 14.5 0.00 0.00 0.00 78 1013.1
20180419064649 12 35 0.0 14.5 0.00 0.00 0.00 82 1013.1
20180419064148 11 41 0.0 14.5 0.00 0.00 0.00 87 1013.1
20180419063649 10 68 0.0 14.5 0.00 0.00 0.00 86 1013.1
20180419063147 10 45 0.0 14.5 0.00 0.00 0.00 86 1013.0
20180419062647 10 225 0.0 14.5 0.00 0.00 0.00 87 1013.0
20180419062149 10 270 0.0 14.5 0.00 0.00 0.00 87 1012.9
20180419061647 10 315 0.0 14.5 0.00 0.00 0.00 87 1012.8
20180419061148 10 269 0.0 14.5 0.00 0.00 0.00 87 1012.8
20180419060648 9 45 0.0 14.5 0.00 0.00 0.00 86 1012.8
20180419060148 9 45 0.0 14.5 0.00 0.00 0.00 86 1012.8
20180419055648 10 48 0.0 14.5 0.00 0.00 0.00 86 1012.6
20180419055148 9 202 0.0 14.5 0.00 0.00 0.00 85 1012.6
20180419054647 10 270 0.0 14.5 0.00 0.00 0.00 85 1012.6
20180419054148 10 237 0.0 14.5 0.00 0.00 0.00 84 1012.4
20180419053649 10 290 0.0 14.5 0.00 0.00 0.00 84 1012.4
20180419053148 10 78 0.0 14.5 0.00 0.00 0.00 84 1012.4
20180419052648 10 125 0.0 14.5 0.00 0.00 0.00 84 1012.4
20180419052148 10 148 0.0 14.5 0.00 0.00 0.00 84 1012.4
20180419051647 10 108 0.0 14.5 0.00 0.00 0.00 85 1012.4
20180419051147 10 175 0.0 14.5 0.00 0.00 0.00 85 1012.4
20180419050649 10 209 0.0 14.5 0.00 0.00 0.00 85 1012.5
20180419050147 10 202 0.0 14.5 0.00 0.00 0.00 85 1012.5
20180419045647 10 180 0.0 14.5 0.00 0.00 0.00 85 1012.6
20180419045148 10 202 0.0 14.5 0.00 0.00 0.00 84 1012.6
20180419044647 10 280 0.0 14.5 0.00 0.00 0.00 83 1012.6
20180419044146 10 202 0.0 14.5 0.00 0.00 0.00 83 1012.5
20180419043649 10 238 0.0 14.5 0.00 0.00 0.00 82 1012.5
20180419043147 10 177 0.0 14.5 0.00 0.00 0.00 79 1012.5
20180419042647 10 88 0.0 14.5 0.00 0.00 0.00 79 1012.5
20180419042147 11 52 0.0 14.5 0.00 0.00 0.00 78 1012.6
20180419041647 11 348 0.0 14.5 0.00 0.00 0.00 78 1012.6
20180419041147 11 313 0.0 14.5 0.00 0.00 0.00 78 1012.6
20180419040647 11 139 0.0 14.5 0.00 0.00 0.00 78 1012.7
20180419040147 11 112 0.0 14.5 0.00 0.00 0.00 78 1012.7
20180419035647 11 90 0.0 14.5 0.00 0.00 0.00 78 1012.9
20180419035147 11 84 0.0 14.5 0.00 0.00 0.00 78 1012.9
20180419034647 11 103 0.0 14.5 0.00 0.00 0.00 78 1012.9
20180419034147 11 109 0.0 14.5 0.00 0.00 0.00 78 1013.0
20180419033648 11 103 0.0 14.5 0.00 0.00 0.00 78 1013.0
20180419033148 11 112 0.0 14.5 0.00 0.00 0.00 78 1013.1
20180419032647 11 145 0.0 14.5 0.00 0.00 0.00 78 1013.1
20180419032148 11 158 0.0 14.5 0.00 0.00 0.00 78 1013.1
20180419031647 12 149 0.0 14.5 0.00 0.00 0.00 77 1013.1
20180419031146 12 200 0.0 14.5 0.00 0.00 0.00 76 1013.1
20180419030647 12 125 0.0 14.5 0.00 0.00 0.00 76 1013.2
20180419030148 12 113 0.0 14.5 0.00 0.00 0.00 76 1013.2
20180419025647 12 125 0.0 14.5 0.00 0.00 0.00 76 1013.3
20180419025147 12 103 0.0 14.5 0.00 0.00 0.00 76 1013.3
20180419024647 12 112 0.0 14.5 0.00 0.00 0.00 76 1013.3
20180419024147 12 188 0.0 14.5 0.00 0.00 0.00 76 1013.3
20180419023647 12 205 0.0 14.5 0.00 0.00 0.00 75 1013.3
20180419023147 12 139 0.0 14.5 0.00 0.00 0.00 75 1013.4
20180419022647 12 150 0.0 14.5 0.00 0.00 0.00 75 1013.4
20180419022147 12 147 0.0 14.5 0.00 0.00 0.00 75 1013.4
20180419021647 12 158 0.0 14.5 0.00 0.00 0.00 76 1013.4
20180419021147 12 272 0.0 14.5 0.00 0.00 0.00 74 1013.4
20180419020647 12 149 3.2 14.5 0.00 0.00 0.00 74 1013.6
20180419020146 12 124 0.0 14.5 0.00 0.00 0.00 74 1013.6
20180419015647 13 159 0.0 14.5 0.00 0.00 0.00 75 1013.6
20180419015146 13 202 3.2 14.5 0.00 0.00 0.00 76 1013.6
20180419014646 13 217 0.0 14.5 0.00 0.00 0.00 76 1013.6
20180419014147 12 173 0.0 14.5 0.00 0.00 0.00 77 1013.6
20180419013646 12 175 0.0 14.5 0.00 0.00 0.00 77 1013.6
20180419013146 12 220 0.0 14.5 0.00 0.00 0.00 76 1013.8
20180419012646 13 197 0.0 14.5 0.00 0.00 0.00 75 1013.8
20180419012146 13 45 0.0 14.5 0.00 0.00 0.00 74 1013.9
20180419011647 13 202 0.0 14.5 0.00 0.00 0.00 74 1013.9
20180419011146 13 189 0.0 14.5 0.00 0.00 0.00 72 1013.9
20180419010647 13 171 0.0 14.5 0.00 0.00 0.00 72 1014.1
20180419010146 13 199 4.8 14.5 0.00 0.00 0.00 73 1014.1
20180419005645 13 224 0.0 14.5 0.00 0.00 0.00 73 1014.2
20180419005147 13 189 3.2 14.5 0.00 0.00 0.00 73 1014.2
20180419004646 13 198 0.0 14.5 0.00 0.00 0.00 72 1014.2
20180419004145 14 225 3.2 14.5 0.00 0.00 0.00 70 1014.2
20180419003648 15 192 4.8 14.5 0.00 0.00 0.00 66 1014.2
20180419003146 15 82 6.4 14.5 0.00 0.00 0.00 63 1014.3
20180419002645 15 52 8.0 14.5 0.00 0.00 0.00 64 1014.3
20180419002147 15 45 8.0 14.5 0.00 0.00 0.00 64 1014.4
20180419001646 15 68 8.0 14.5 0.00 0.00 0.00 64 1014.4
20180419001147 15 55 8.0 14.5 0.00 0.00 0.00 64 1014.4
20180419000647 15 43 6.4 14.5 0.00 0.00 0.00 64 1014.4
20180419000146 15 55 8.0 14.5 0.00 0.00 0.00 64 1014.4
20180418235646 15 68 6.4 14.5 0.00 0.00 0.00 63 1014.4
20180418235146 15 49 8.0 14.5 0.00 0.00 0.00 63 1014.4
20180418234646 15 68 8.0 14.5 0.00 0.00 0.00 63 1014.4
20180418234146 15 55 8.0 14.5 0.00 0.00 0.00 63 1014.5
20180418233647 15 45 9.7 14.5 0.00 0.00 0.00 63 1014.5
20180418233147 15 60 8.0 14.5 0.00 0.00 0.00 63 1014.3
20180418232645 16 45 8.0 14.5 0.00 0.00 0.00 63 1014.3
20180418232147 16 54 8.0 14.5 0.00 0.00 0.00 62 1014.4